RH
12 10 10 10 9 10 10 10 11 12 13 13 13 13 13 13 13 13 14 15 16 16 18 20 23 24 23 23 24 25 26 26 26 26 26 26 26 26 27 28 27 23 18
9 10 11 11 11 13 13 13 13 14 14 14 15 14 14 14 15 15 15 15 16 16 16 16 15 14 15 18 21 22 23 23 23 23 23 23 23 23 24 24 24 24 23
9 9 10 11 11 11 12 12 13 15 14 14 15 16 16 16 16 16 17 18 19 20 21 21 21 20 19 18 15 14 14 16 19 21 23 23 23 22 22 22 21 20 20
13 9 10 13 14 14 12 12 10 11 11 10 10 12 13 13 13 14 14 13 14 15 16 17 18 20 22 22 22 22 21 19 18 17 17 18 19 19 20 22 22 22 22
19 11 11 12 15 14 13 12 11 8 9 9 8 8 9 10 10 11 11 12 10 10 12 13 15 18 20 21 22 23 24 23 23 23 23 23 23 24 24 25 26 27 26
26 14 11 11 14 14 13 13 13 10 8 9 8 8 9 10 10 11 11 11 11 10 10 10 12 12 15 17 19 22 24 26 27 27 27 28 30 32 32 31 29 27 25
34 24 14 10 12 13 13 14 14 14 13 8 8 7 8 9 10 11 11 12 12 11 10 10 10 11 12 13 14 16 18 20 24 28 31 34 35 34 31 30 26 21 21
45 26 24 15 14 14 15 14 14 14 14 13 10 8 8 9 9 9 10 10 11 10 11 10 10 10 10 11 13 14 14 15 16 16 17 18 18 19 19 20 20 20 20
51 42 27 24 21 16 15 15 15 14 14 14 13 11 7 8 9 9 9 9 10 10 10 11 11 10 11 10 11 12 14 15 16 17 18 19 19 19 18 16 15 14 16
50 47 32 24 23 20 16 14 14 14 14 13 13 13 11 8 7 7 8 8 9 9 10 10 11 11 11 11 11 11 11 13 14 15 16 17 20 20 20 20 18 17 17
44 43 36 25 22 22 18 14 12 13 13 13 14 14 13 12 10 7 7 7 7 7 8 9 10 11 11 11 11 11 11 12 12 14 13 15 16 18 21 21 20 21 22
22 48 44 33 23 21 21 19 15 13 11 12 12 12 12 11 12 12 8 8 8 8 8 8 9 11 12 12 12 12 12 12 12 12 13 13 13 15 20 22 21 21 21
20 19 44 48 44 28 21 20 20 19 18 16 16 15 15 13 12 12 13 9 8 8 8 8 9 11 12 13 13 13 14 14 13 13 13 13 11 12 15 19 22 22 21
24 18 17 38 49 40 32 23 19 18 17 16 16 16 15 14 14 13 11 10 10 10 11 11 12 12 12 13 14 14 15 15 14 14 14 13 12 12 14 18 28 29 33
24 18 16 17 27 48 46 36 32 27 23 20 18 16 15 14 14 12 11 12 12 12 13 13 13 14 14 14 16 17 17 16 15 16 16 15 14 13 14 24 31 34 38
24 19 17 16 18 32 30 43 45 39 42 37 32 29 23 18 15 14 14 14 14 15 16 15 15 15 15 16 18 19 19 18 17 18 17 17 16 16 22 23 37 45 42
23 20 19 19 19 21 57 49 30 36 45 45 43 40 35 31 27 22 18 17 15 15 15 16 18 17 17 17 19 21 21 20 22 23 19 18 16 16 18 23 64 87 73
50 24 21 20 21 21 21 21 24 25 23 24 29 40 44 44 43 36 31 26 23 20 21 20 21 23 21 23 26 29 29 26 23 21 20 18 17 15 19 20 80 96 94
53 39 30 26 27 30 28 24 21 20 20 20 21 22 22 25 34 43 42 40 35 31 29 28 25 26 27 34 37 34 33 32 31 24 20 19 24 21 23 20 84 98 74
67 65 58 53 46 42 31 26 25 26 24 23 23 23 25 25 25 25 24 25 35 40 41 38 35 33 34 36 38 40 37 36 25 25 22 22 23 28 26 26 30 37 60
99 96 85 66 55 48 46 77 58 27 23 22 22 22 23 24 26 27 28 28 29 32 38 44 45 44 43 43 41 36 29 24 22 24 24 24 42 29 29 36 96 63 54
98 99 100 100 96 96 96 90 84 81 66 50 54 35 29 28 26 26 27 26 26 27 28 30 33 35 34 33 30 28 30 30 31 32 37 34 38 30 32 28 86 37 46
100 100 100 100 96 95 95 100 98 94 90 68 67 71 82 68 52 32 28 27 25 23 25 26 25 26 27 28 28 28 30 33 46 44 41 40 34 29 28 33 35 36 60
95 100 100 100 100 100 100 100 100 100 94 86 79 74 77 69 62 66 60 51 48 45 42 38 35 37 39 42 52 52 57 64 62 66 66 58 45 37 35 35 35 58 78
100 99 94 93 89 90 92 88 88 94 97 97 100 100 100 97 94 84 67 68 70 68 66 70 73 69 53 64 62 60 55 60 67 69 61 53 47 40 41 43 54 68 88
90 82 74 73 72 75 80 84 90 92 90 93 98 100 100 100 97 89 94 97 95 95 94 93 87 89 88 84 79 73 67 60 58 59 59 60 62 62 72 64 64 89 89
Wind_Speed
35 34 31 28 26 24 22 21 19 18 18 17 17 17 18 17 16 15 15 15 15 15 15 15 15 14 13 13 13 14 14 14 14 14 14 14 16 17 18 20 21 22 23
38 35 31 29 27 23 22 20 19 19 19 20 20 20 18 16 16 16 16 16 16 16 15 17 16 17 18 18 18 17 17 16 16 17 17 17 18 20 21 23 23 24 26
40 37 32 30 28 25 22 20 20 20 20 22 22 22 19 19 20 20 19 17 18 18 18 19 18 18 18 18 18 19 19 20 20 19 19 20 22 23 25 26 26 27 29
41 39 36 33 28 24 24 22 21 21 22 21 21 21 21 21 19 17 17 15 15 17 18 20 20 21 21 21 21 21 20 20 21 22 24 25 26 27 28 28 29 29 31
42 41 37 35 31 28 26 24 22 21 21 21 21 20 19 21 19 18 17 16 14 12 13 14 16 18 19 20 21 22 22 23 24 25 26 27 27 28 29 31 32 33 34
41 43 41 39 35 31 28 25 23 20 19 20 22 21 22 22 20 19 19 17 16 15 13 12 12 13 15 17 20 22 23 23 24 25 26 27 27 29 30 33 35 36 38
40 42 43 41 37 33 31 28 26 23 21 21 22 23 24 23 22 21 20 19 18 18 16 16 14 13 14 14 16 18 21 23 25 26 28 29 31 33 35 36 37 38 39
38 41 43 43 41 39 37 35 31 28 27 26 24 24 24 25 24 23 23 22 22 21 19 18 18 18 17 17 17 18 19 20 22 24 27 29 31 32 34 35 37 37 38
40 39 42 43 43 44 43 41 39 36 34 31 28 26 25 25 26 27 27 26 24 24 23 22 21 21 22 22 20 21 21 22 24 24 25 27 29 30 32 33 35 36 37
45 45 46 48 49 49 49 48 45 42 39 35 32 31 30 28 29 28 28 29 29 28 26 26 25 25 26 26 25 26 26 26 26 27 28 29 30 31 33 34 35 36 37
47 47 49 50 51 52 53 52 50 47 44 41 39 37 36 34 32 31 31 31 31 32 31 31 30 30 30 30 29 30 31 31 30 31 32 33 33 34 35 36 37 38 39
47 48 48 52 52 52 53 53 53 52 51 49 47 45 44 42 40 38 38 38 37 37 36 36 35 35 35 35 34 34 35 35 35 36 36 37 37 37 38 38 38 39 40
44 48 49 49 53 53 54 54 54 53 52 51 51 50 48 48 47 46 45 44 43 42 42 41 39 39 40 39 40 39 38 38 39 40 40 41 41 41 41 41 41 41 42
47 47 49 52 48 53 53 53 54 53 52 52 52 51 50 49 49 50 49 47 47 47 47 46 44 43 44 44 44 44 44 44 43 43 44 45 45 45 44 43 44 44 45
43 46 47 49 50 52 51 52 54 54 54 54 53 52 50 50 50 51 52 51 51 50 51 50 49 48 48 48 49 48 48 49 48 47 48 49 49 48 48 46 47 48 49
46 44 44 45 47 54 50 52 53 56 56 55 56 56 54 54 54 54 54 55 54 53 53 53 53 53 52 52 52 52 52 52 52 50 51 53 52 52 51 50 52 49 48
41 44 46 47 48 49 55 56 54 56 57 58 58 60 59 58 58 58 59 58 58 58 57 56 56 56 56 56 55 56 57 56 57 56 53 56 56 53 54 52 52 52 52
42 43 46 48 49 49 49 50 52 55 57 60 62 63 63 63 64 64 63 64 63 63 62 61 59 60 59 59 58 60 62 61 58 56 59 58 59 57 56 55 49 56 63
46 46 46 50 52 50 51 54 57 58 59 58 59 63 64 65 67 68 67 68 68 68 68 67 66 65 63 62 64 64 64 63 63 61 59 59 58 59 57 53 60 58 57
51 50 50 51 52 51 51 53 54 53 53 55 61 63 61 62 65 66 67 70 73 72 70 69 69 69 68 67 65 66 68 65 63 62 62 61 60 59 57 56 55 55 57
59 61 63 63 63 61 60 66 61 57 58 59 61 60 60 62 65 65 64 64 65 67 68 69 69 69 69 68 67 67 66 65 64 64 64 62 60 60 59 56 55 58 60
59 60 61 60 60 60 61 60 61 63 63 64 65 62 64 64 63 63 63 65 66 66 65 66 67 67 67 66 65 64 63 63 63 62 61 61 62 63 62 58 58 68 62
57 59 61 64 64 65 66 66 65 65 66 66 65 66 70 72 68 66 66 66 66 67 66 66 67 67 68 68 68 67 65 65 63 64 64 62 63 65 65 65 65 66 61
55 57 56 59 62 63 64 65 68 71 71 72 72 72 73 73 72 73 74 73 71 69 69 68 66 65 64 64 63 63 63 65 65 66 66 68 69 72 73 74 69 64 64
55 57 56 56 58 61 66 68 68 67 66 68 72 75 79 80 79 79 78 79 78 76 74 74 75 76 73 70 71 72 72 72 71 71 73 75 75 75 73 70 65 69 71
61 63 64 65 64 65 65 66 66 68 70 71 69 68 67 68 67 68 70 77 81 84 84 84 83 79 79 81 81 81 81 80 81 82 82 82 80 77 73 72 75 73 71
Wind_Direction
195 196 195 194 192 192 189 190 191 193 198 199 198 198 198 200 204 209 214 219 225 227 231 236 239 243 245 249 254 259 262 265 270 276 281 286 291 295 297 298 297 297 297
197 197 196 193 189 189 191 192 199 200 204 209 210 211 212 211 214 220 227 231 238 242 241 246 248 251 253 254 254 256 260 266 273 278 283 287 289 292 295 295 296 297 298
201 198 197 193 192 187 193 194 197 201 205 211 214 212 214 219 221 223 228 234 240 246 247 251 253 254 255 258 262 267 270 272 274 278 280 283 286 289 291 293 295 297 298
204 202 199 197 197 197 197 199 201 202 205 208 210 211 211 216 221 224 230 232 234 245 249 250 252 255 258 261 264 267 270 272 274 276 278 281 283 287 289 291 292 293 294
207 206 207 205 203 204 203 204 205 208 210 212 213 212 209 211 214 218 225 235 243 249 259 261 262 261 260 262 264 266 269 271 273 276 279 282 284 285 287 288 289 291 291
211 212 211 210 208 208 209 208 213 217 223 221 220 217 213 214 215 219 226 234 247 255 262 274 278 276 270 266 267 269 270 272 275 277 280 282 284 286 287 289 292 294 294
213 216 217 215 213 213 216 217 219 222 227 232 231 226 222 221 222 223 227 234 241 253 259 267 274 281 285 283 279 278 277 277 277 279 280 283 285 287 289 290 292 293 295
215 217 220 220 217 217 220 223 221 225 227 232 235 237 231 230 231 233 236 235 243 250 256 263 270 276 279 284 288 290 291 290 289 289 289 289 290 291 293 294 295 297 298
217 217 220 221 221 221 220 224 226 224 225 230 236 240 241 238 237 238 242 245 246 250 256 261 266 272 276 280 284 289 291 293 295 296 297 297 298 299 299 300 300 301 301
218 217 219 219 222 223 224 224 227 230 230 231 235 240 242 244 244 245 248 252 253 253 253 257 261 267 273 279 284 287 291 294 296 298 298 298 300 302 302 302 302 302 302
225 219 224 224 224 228 230 230 231 234 236 236 237 240 244 247 250 250 250 254 259 261 258 257 259 264 268 274 279 284 289 292 296 296 298 299 301 302 301 301 302 303 303
231 228 227 230 230 230 231 234 236 237 241 243 243 242 244 249 252 255 253 252 254 257 258 260 261 263 267 271 275 280 284 289 293 294 296 298 300 304 303 303 303 302 301
235 233 233 234 235 234 235 235 237 239 240 242 245 247 248 250 253 255 254 253 253 256 260 260 260 261 265 270 274 278 282 285 288 291 294 296 298 301 301 302 302 302 301
235 237 236 235 238 238 237 238 239 239 241 242 243 244 245 247 248 250 253 252 253 254 257 259 259 260 263 268 272 276 279 282 285 288 291 292 297 297 299 299 299 299 300
242 240 241 238 238 240 242 242 240 242 243 245 246 246 246 246 248 250 251 254 254 254 255 258 260 262 263 265 268 273 277 280 284 287 288 291 294 293 296 296 297 299 299
238 241 241 243 240 242 244 245 246 244 243 246 248 249 248 247 249 250 252 255 256 256 256 258 260 261 264 267 270 272 275 277 280 284 285 289 291 292 294 296 297 297 300
238 238 239 237 239 238 243 249 248 247 248 249 249 250 251 251 251 251 252 253 255 257 259 259 260 262 264 266 268 271 274 275 280 283 282 286 287 288 290 295 296 289 300
235 236 236 238 238 238 238 240 243 246 247 249 250 250 251 252 252 253 253 255 256 257 258 259 260 262 264 265 267 270 273 275 278 279 282 282 286 287 291 293 287 285 295
228 230 235 237 238 238 239 240 242 244 245 248 249 250 252 253 254 255 256 255 255 256 258 259 260 262 264 265 270 272 273 274 277 277 278 281 282 285 285 288 287 282 286
231 234 235 234 233 237 243 246 245 244 245 247 249 249 250 252 254 255 255 257 258 258 259 259 260 263 265 267 269 272 273 274 275 275 277 278 281 282 284 287 280 278 283
243 243 242 240 244 248 249 252 249 250 249 250 251 252 251 252 252 253 255 256 257 259 260 261 262 263 263 265 266 267 269 270 272 274 276 277 276 280 282 286 277 287 284
249 248 249 250 250 249 249 247 249 249 251 254 254 252 253 252 252 253 255 256 257 258 258 259 260 261 262 264 265 266 267 269 270 271 273 274 277 279 281 280 275 281 287
252 254 254 254 254 254 253 252 252 250 249 251 253 254 256 257 259 258 257 257 258 258 259 260 260 261 262 263 264 265 265 266 265 267 269 274 277 278 279 282 282 283 286
253 252 251 252 254 257 258 256 255 254 254 253 252 252 254 257 259 260 260 260 260 261 262 263 263 264 263 262 264 265 264 264 265 267 270 274 277 279 283 285 283 283 288
249 249 251 255 257 259 260 260 260 258 256 257 257 258 258 258 259 260 260 261 261 262 261 261 263 263 263 265 267 267 268 268 268 271 271 274 280 284 282 279 278 286 288
259 259 258 258 257 256 256 258 258 260 260 259 259 259 259 260 260 262 263 262 262 263 265 266 264 263 263 263 265 266 267 267 268 269 271 275 278 277 279 279 281 285 285